Papa, Hungary

7:51 PM CEST on May 27, 2018 (GMT +0200)
Papa

Weather History for LHPA - November, 2012

Change the Weather History Date:

Monday, November 12, 2012

  Actual Average Record
Temperature  
Mean Temperature 48 °F -  
Max Temperature 50 °F - - ()
Min Temperature 46 °F - - ()
Degree Days  
Heating Degree Days 17    
Moisture  
Dew Point 47 °F    
Average Humidity 95    
Maximum Humidity 100    
Minimum Humidity 82    
Precipitation  
Precipitation 0.00 in - - ()
Sea Level Pressure  
Sea Level Pressure 30.21 in    
Wind  
Wind Speed 3 mph ()    
Max Wind Speed 7 mph    
Max Gust Speed -    
Visibility 2.9 miles    
Events Fog , Rain    
T = Trace of Precipitation, MM = Missing Value Source: Averaged Metar Reports

Daily Weather History Graph

Daily Weather History Graph

Search for Another Location

Airport or City:

Astronomy

Nov. 12, 2012 Rise Set
Actual Time 6:49 AM CET 4:17 PM CET
Civil Twilight 6:16 AM CET 4:50 PM CET
Nautical Twilight 5:39 AM CET 5:27 PM CET
Astronomical Twilight 5:03 AM CET 6:03 PM CET
Moon 4:48 AM CET (11/12) 3:13 PM CET (11/12)
Length of Visible Light 10h 34m
Length of Day
9h 28m
Waning Crescent, 3% of the Moon is Illuminated
Nov 12
Waning Crescent
Nov 13
New
Nov 20
First Quarter
Nov 28
Full
Dec 6
Last Quarter

Hourly Weather History & Observations

Time (CET) Temp. Windchill Dew Point Humidity Pressure Visibility Wind Dir Wind Speed Gust Speed Precip Events Conditions
12:15 AM 46.4 °F - 44.6 °F 93% 30.06 in - NNW 2.2 mph - N/A   Clear
12:45 AM 46.4 °F - 44.6 °F 93% 30.06 in - NNW 2.2 mph - N/A   Clear
1:15 AM 48.2 °F - 44.6 °F 87% 30.09 in - WNW 2.2 mph - N/A   Clear
1:45 AM 48.2 °F - 44.6 °F 87% 30.09 in - NW 2.2 mph - N/A   Clear
2:15 AM 48.2 °F - 44.6 °F 87% 30.09 in - NNW 6.7 mph - N/A   Clear
2:45 AM 46.4 °F 43.0 °F 44.6 °F 93% 30.12 in - NW 6.7 mph - N/A   Clear
3:15 AM 48.2 °F - 44.6 °F 87% 30.12 in 6.2 mi North 2.2 mph - N/A   Mostly Cloudy
3:45 AM 46.4 °F - 44.6 °F 93% 30.12 in 6.2 mi NNE 2.2 mph - N/A   Mostly Cloudy
4:15 AM 48.2 °F - 44.6 °F 87% 30.12 in 6.2 mi East 4.5 mph - N/A   Mostly Cloudy
4:45 AM 48.2 °F - 44.6 °F 87% 30.12 in 6.2 mi ESE 4.5 mph - N/A   Mostly Cloudy
5:15 AM 50.0 °F - 44.6 °F 82% 30.12 in 6.2 mi ENE 4.5 mph - N/A   Mostly Cloudy
5:45 AM - - - N/A% - 6.2 mi Variable 4.5 mph - N/A   Overcast
6:15 AM 48.2 °F - 46.4 °F 93% 30.15 in 6.2 mi NNE 2.2 mph - N/A   Mostly Cloudy
6:45 AM 48.2 °F - 46.4 °F 93% 30.15 in 6.2 mi ENE 2.2 mph - N/A   Mostly Cloudy
7:15 AM 48.2 °F - 48.2 °F 100% 30.18 in 6.2 mi Calm Calm - N/A   Mostly Cloudy
7:30 AM 50.0 °F - 48.2 °F 94% 30.18 in 5.0 mi West 4.5 mph - N/A Rain Light Rain
7:45 AM 50.0 °F - 48.2 °F 94% 30.18 in 5.0 mi NW 2.2 mph - N/A Rain Light Rain
8:15 AM 50.0 °F - 48.2 °F 94% 30.18 in 3.7 mi NNW 2.2 mph - N/A Rain Light Rain
8:45 AM - - - N/A% - 6.2 mi Variable 4.5 mph - N/A Rain Light Rain
9:15 AM 50.0 °F - 48.2 °F 94% 30.21 in 3.7 mi North 4.5 mph - N/A Rain Light Rain
9:45 AM 48.2 °F - 46.4 °F 93% 30.21 in 3.7 mi North 4.5 mph - N/A Rain Light Rain
10:09 AM 48.2 °F - 46.4 °F 93% 30.24 in 3.1 mi NNW 4.5 mph - N/A Rain Light Rain
10:15 AM 48.2 °F - 46.4 °F 93% 30.24 in 3.1 mi NNW 4.5 mph - N/A Rain Light Rain
10:45 AM 48.2 °F - 46.4 °F 93% 30.24 in 2.5 mi NNW 2.2 mph - N/A Rain Light Rain
11:15 AM 48.2 °F - 48.2 °F 100% 30.21 in 2.2 mi NNW 2.2 mph - N/A Rain Light Rain
11:41 AM 48.2 °F - 48.2 °F 100% 30.21 in 2.2 mi North 2.2 mph - N/A Rain Light Rain
11:45 AM - - - N/A% - 5.0 mi Variable 4.5 mph - N/A Rain Light Rain
12:15 PM 48.2 °F - 48.2 °F 100% 30.24 in 2.2 mi NNW 4.5 mph - N/A Rain Light Rain
12:45 PM 50.0 °F - 48.2 °F 94% 30.24 in 2.5 mi NNW 4.5 mph - N/A Rain Light Rain
1:09 PM 50.0 °F - 48.2 °F 94% 30.24 in 2.5 mi NW 4.5 mph - N/A Rain Light Rain
1:15 PM 50.0 °F - 48.2 °F 94% 30.24 in 2.5 mi NNW 4.5 mph - N/A Rain Light Rain
1:45 PM 50.0 °F - 48.2 °F 94% 30.24 in 2.2 mi NNW 4.5 mph - N/A Rain Light Rain
2:15 PM 50.0 °F - 48.2 °F 94% 30.24 in 2.2 mi NNW 4.5 mph - N/A Rain Light Rain
2:45 PM - - - N/A% - 3.7 mi Variable 4.5 mph - N/A   Overcast
3:15 PM 50.0 °F - 48.2 °F 94% 30.24 in 2.2 mi NNE 4.5 mph - N/A Rain Light Rain
3:45 PM 50.0 °F - 48.2 °F 94% 30.24 in 2.2 mi NE 4.5 mph - N/A Rain Light Rain
3:51 PM 50.0 °F - 48.2 °F 94% 30.24 in 2.2 mi NNE 2.2 mph - N/A   Overcast
4:00 PM - - - N/A% - 3.7 mi Variable 4.5 mph - N/A   Overcast
4:15 PM 48.2 °F - 48.2 °F 100% 30.24 in 2.2 mi North 2.2 mph - N/A   Overcast
4:24 PM 48.2 °F - 48.2 °F 100% 30.24 in 1.9 mi North 2.2 mph - N/A Fog Overcast
4:45 PM 48.2 °F - 48.2 °F 100% 30.27 in 1.9 mi North 2.2 mph - N/A Fog Overcast
5:15 PM 48.2 °F - 48.2 °F 100% 30.24 in 1.6 mi NNE 2.2 mph - N/A Fog Overcast
5:37 PM 48.2 °F - 48.2 °F 100% 30.27 in 0.9 mi North 2.2 mph - N/A Fog Mostly Cloudy
5:45 PM - - - N/A% - 3.7 mi Variable 4.5 mph - N/A   Overcast
6:15 PM 48.2 °F - 48.2 °F 100% 30.27 in 0.9 mi North 2.2 mph - N/A Fog Overcast
6:45 PM 48.2 °F - 48.2 °F 100% 30.27 in 0.9 mi NNW 2.2 mph - N/A Fog Overcast
7:15 PM 48.2 °F - 48.2 °F 100% 30.30 in 0.9 mi NNW 2.2 mph - N/A Fog Overcast
7:45 PM 48.2 °F - 48.2 °F 100% 30.30 in 0.9 mi NNW 4.5 mph - N/A Fog Shallow Fog
8:15 PM 46.4 °F - 46.4 °F 100% 30.30 in 0.9 mi WNW 2.2 mph - N/A Fog Overcast
8:45 PM - - - N/A% - 0.9 mi Variable 4.5 mph - N/A Fog Overcast
8:57 PM 46.4 °F - 46.4 °F 100% 30.30 in 0.3 mi Calm Calm - N/A Fog Fog
9:00 PM - - - N/A% - 3.7 mi Variable 4.5 mph - N/A   Overcast
9:15 PM 46.4 °F - 46.4 °F 100% 30.30 in 0.3 mi Calm Calm - N/A Fog Fog
9:45 PM 46.4 °F - 46.4 °F 100% 30.30 in 0.3 mi Calm Calm - N/A Fog Fog
10:15 PM 46.4 °F 44.4 °F 46.4 °F 100% 30.30 in 0.3 mi NW 4.5 mph - N/A Fog Fog
10:36 PM 46.4 °F - 46.4 °F 100% 30.30 in 0.6 mi NNE 2.2 mph - N/A Fog Overcast
10:45 PM 46.4 °F - 46.4 °F 100% 30.30 in 0.6 mi NNW 2.2 mph - N/A Fog Overcast
11:15 PM 46.4 °F - 46.4 °F 100% 30.33 in 0.6 mi Calm Calm - N/A Fog Overcast
11:45 PM - - - N/A% - 0.9 mi North - - N/A Fog Overcast